This demonstration page uses our WeatherBlox Daily Observations layout. Learn more.

Left ArrowRight Arrow

39.51506, -84.39828

Hourly Observations for April 26, 2015

Temp ( °F °C ) Dew Point ( °F °C ) Humidity (%) Winds ( mph kmh ) Pressure ( in mb ) Visibility ( mi km ) Precip ( " mm )
12:15 am 00:15 Cloudy 49 9.6 42 5.7 77 77 NE 10 17 29.74 1007 10 16.0934 N/A
12:35 am 00:35 Cloudy 49 9.5 42 5.3 75 75 NE 13 20 29.74 1007 10 16.0934 N/A
12:55 am 00:55 Cloudy 47 8.2 39 3.7 74 74 NE 10 17 29.74 1007 10 16.0934 N/A
1:15 am 01:15 Cloudy 47 8.2 39 3.8 74 74 NE 9 15 29.77 1008 10 16.0934 N/A
1:35 am 01:35 Cloudy 47 8.2 38 3.4 72 72 NNE 13 20 29.77 1008 10 16.0934 N/A
1:55 am 01:55 Cloudy 47 8.2 37 3 70 70 NNE 10 17 29.77 1008 10 16.0934 N/A
2:15 am 02:15 Cloudy 47 8.2 35 1.9 65 65 NE 10 17 29.77 1008 10 16.0934 N/A
2:35 am 02:35 Cloudy 47 8.2 34 0.9 60 60 NNE 7 11 29.77 1008 10 16.0934 N/A
2:55 am 02:55 Cloudy 44 6.8 31 -0.5 60 60 N 9 15 29.77 1008 10 16.0934 N/A
3:15 am 03:15 Cloudy 43 6.2 29 -1.8 57 57 NNE 9 15 29.77 1008 10 16.0934 N/A
3:35 am 03:35 Cloudy 43 6.1 29 -1.6 58 58 NNE 8 13 29.77 1008 10 16.0934 N/A
3:55 am 03:55 Cloudy 43 6.1 29 -1.7 58 58 NNE 9 15 29.77 1008 10 16.0934 N/A
4:15 am 04:15 Cloudy 43 6.1 30 -1.3 59 59 NNE 8 13 29.77 1008 10 16.0934 N/A
4:35 am 04:35 Cloudy 43 6.1 30 -1.3 59 59 NNE 7 11 29.8 1009 10 16.0934 N/A
4:55 am 04:55 Cloudy 43 6 30 -1.2 60 60 N 8 13 29.8 1009 10 16.0934 N/A
5:15 am 05:15 Cloudy 43 6 30 -1 61 61 N 9 15 29.8 1009 10 16.0934 N/A
5:35 am 05:35 Cloudy 43 6.1 31 -0.7 62 62 N 8 13 29.8 1009 10 16.0934 N/A
5:55 am 05:55 Cloudy 43 6.1 31 -0.6 63 63 NNE 9 15 29.8 1009 10 16.0934 N/A
6:15 am 06:15 Cloudy 43 6.1 31 -0.6 63 63 NNE 9 15 29.8 1009 10 16.0934 N/A
6:35 am 06:35 Cloudy 43 6.1 31 -0.7 62 62 NNE 10 17 29.83 1010 10 16.0934 N/A
6:55 am 06:55 Cloudy 43 6.1 32 -0.1 65 65 NNE 12 19 29.83 1010 10 16.0934 N/A
7:15 am 07:15 Cloudy 43 6 32 undefined 66 66 NNE 10 17 29.83 1010 10 16.0934 N/A
7:35 am 07:35 Mostly Cloudy 42 5.8 32 undefined 67 67 NNE 10 17 29.85 1011 10 16.0934 N/A
7:55 am 07:55 Partly Cloudy 42 5.8 32 undefined 67 67 NNE 10 17 29.85 1011 10 16.0934 N/A
8:15 am 08:15 Partly Cloudy 43 6.1 32 undefined 65 65 NE 13 20 29.85 1011 10 16.0934 N/A
8:35 am 08:35 Mostly Cloudy 44 6.8 32 0.1 63 63 NNE 12 19 29.85 1011 10 16.0934 N/A
8:55 am 08:55 Mostly Cloudy 44 6.7 32 0.2 64 64 NE 12 19 29.85 1011 10 16.0934 N/A
9:15 am 09:15 Partly Cloudy 47 8.4 33 0.8 59 59 NNE 14 22 29.85 1011 10 16.0934 N/A
9:35 am 09:35 Mostly Cloudy 47 8.2 33 0.5 59 59 NE 13 20 29.85 1011 10 16.0934 N/A
9:55 am 09:55 Cloudy 49 9.6 34 1.1 56 56 NE 13 20 29.85 1011 10 16.0934 N/A
10:15 am 10:15 Cloudy 49 9.6 33 0.5 53 53 NE 12 19 29.85 1011 10 16.0934 N/A
10:35 am 10:35 Cloudy 51 10.5 33 0.6 51 51 NE 12 19 29.85 1011 10 16.0934 N/A
10:55 am 10:55 Mostly Cloudy 53 11.5 33 0.8 48 48 NE 12 19 29.85 1011 10 16.0934 N/A
11:15 am 11:15 Partly Cloudy 55 12.5 34 0.9 45 45 NE 12 19 29.88 1012 10 16.0934 N/A
11:35 am 11:35 Sunny 55 12.5 33 0.4 44 44 NNE 13 20 29.88 1012 10 16.0934 N/A
11:55 am 11:55 Sunny 55 13 35 1.4 45 45 N 10 17 29.88 1012 10 16.0934 N/A
12:15 pm 12:15 Sunny 55 12.6 34 0.9 45 45 N 10 17 29.88 1012 10 16.0934 N/A
12:35 pm 12:35 Sunny 56 13.6 35 1.6 44 44 NNE 13 20 29.88 1012 10 16.0934 N/A
12:55 pm 12:55 Sunny 57 13.8 34 0.9 42 42 NNE 14 22 29.88 1012 10 16.0934 N/A
1:15 pm 13:15 Sunny 57 13.8 33 0.8 41 41 NNE 13 20 29.88 1012 10 16.0934 N/A
1:35 pm 13:35 Sunny 57 13.9 33 0.4 40 40 NE 9 15 29.88 1012 10 16.0934 N/A
1:55 pm 13:55 Sunny 59 15.1 33 0.6 37 37 NE 15 24 29.85 1011 10 16.0934 N/A
2:15 pm 14:15 Sunny 60 15.3 33 0.5 37 37 NNE 9 15 29.85 1011 10 16.0934 N/A
2:35 pm 14:35 Sunny 60 15.3 32 0.2 36 36 N 12 19 29.85 1011 10 16.0934 N/A
2:55 pm 14:55 Sunny 60 15.3 33 0.3 36 36 N 7 11 29.85 1011 10 16.0934 N/A
3:15 pm 15:15 Partly Cloudy 60 15.3 33 0.8 38 38 N 9 15 29.85 1011 10 16.0934 N/A
3:35 pm 15:35 Partly Cloudy 60 15.3 33 0.4 36 36 N 10 17 29.85 1011 10 16.0934 N/A
3:55 pm 15:55 Partly Cloudy 60 15.3 33 0.4 36 36 N 12 19 29.85 1011 10 16.0934 N/A
4:15 pm 16:15 Partly Cloudy 59 15.2 33 0.6 37 37 NE 8 13 29.85 1011 10 16.0934 N/A
4:35 pm 16:35 Sunny 58 14.7 32 0.1 37 37 N 13 20 29.85 1011 10 16.0934 N/A
4:55 pm 16:55 Partly Cloudy 57 14 31 -0.5 37 37 N 7 11 29.83 1010 10 16.0934 N/A
5:15 pm 17:15 Partly Cloudy 60 15.3 33 0.3 36 36 N 15 24 29.85 1011 10 16.0934 N/A
5:35 pm 17:35 Mostly Cloudy 60 15.3 32 undefined 35 35 NNW 12 19 29.85 1011 10 16.0934 N/A
5:55 pm 17:55 Mostly Cloudy 57 13.8 31 -0.7 37 37 N 10 17 29.88 1012 10 16.0934 N/A
6:15 pm 18:15 Mostly Cloudy 60 15.3 32 undefined 35 35 N 12 19 29.85 1011 10 16.0934 N/A
6:35 pm 18:35 Partly Cloudy 58 14.7 31 -0.3 36 36 NNE 12 19 29.85 1011 10 16.0934 N/A
6:55 pm 18:55 Partly Cloudy 60 15.3 32 -0.2 35 35 NNW 10 17 29.85 1011 10 16.0934 N/A
7:15 pm 19:15 Partly Cloudy 57 13.8 29 -1.6 35 35 NNE 12 19 29.88 1012 10 16.0934 N/A
7:35 pm 19:35 Partly Cloudy 57 13.8 30 -1.1 36 36 N 8 13 29.88 1012 10 16.0934 N/A
7:55 pm 19:55 Partly Cloudy 57 13.8 31 -0.6 37 37 NNW 7 11 29.88 1012 10 16.0934 N/A
8:15 pm 20:15 Mostly Cloudy 55 12.5 30 -1 40 40 N 8 13 29.91 1013 10 16.0934 N/A
8:35 pm 20:35 Partly Cloudy 55 12.5 32 -0.1 42 42 N 5 7 29.91 1013 10 16.0934 N/A
8:55 pm 20:55 Partly Cloudy 55 12.5 33 0.4 44 44 N 3 6 29.91 1013 10 16.0934 N/A
9:15 pm 21:15 Clear 54 12.4 35 1.7 48 48 N 3 6 29.91 1013 10 16.0934 N/A
9:35 pm 21:35 Clear 49 9.6 37 2.5 62 62 N N/A 29.91 1013 10 16.0934 N/A
9:55 pm 21:55 Clear 49 9.6 41 5 73 73 N N/A 29.91 1013 10 16.0934 N/A
10:15 pm 22:15 Clear 49 9.6 39 3.9 68 68 N N/A 29.91 1013 10 16.0934 N/A
10:35 pm 22:35 Clear 44 6.8 37 2.8 76 76 N N/A 29.91 1013 10 16.0934 N/A
10:55 pm 22:55 Clear 42 5.7 35 1.8 76 76 N N/A 29.94 1014 10 16.0934 N/A
11:15 pm 23:15 Clear 42 5.8 35 1.8 76 76 N 3 6 29.94 1014 10 16.0934 N/A
11:35 pm 23:35 Clear 42 5.5 36 2.1 79 79 N N/A 29.94 1014 10 16.0934 N/A
11:55 pm 23:55 Clear 41 5.1 35 1.6 78 78 N N/A 29.94 1014 10 16.0934 N/A

Powered by AerisWeather